Change the Weather History Date:

Sunday, November 27, 2011

  Actual Average Record
Temperature  
Mean Temperature 41 °F 33 °F  
Max Temperature 48 °F 40 °F 67 °F (1990)
Min Temperature 33 °F 27 °F 0 °F (1872)
Degree Days  
Heating Degree Days 24 32  
Month to date heating degree days 572 684  
Since 1 July heating degree days 1084 1269  
Cooling Degree Days 0 0  
Month to date cooling degree days 0 0  
Year to date cooling degree days 793 641  
Moisture  
Dew Point 32 °F    
Average Humidity 80    
Maximum Humidity 96    
Minimum Humidity 64    
Precipitation  
Precipitation 0.18 in 0.09 in 1.22 in (1990)
Month to date precipitation 2.53 2.45  
Year to date precipitation 30.36 32.46  
Snow  
Snow 0.00 in 0.20 in 9.70 in (1995)
Month to date snowfall 0.1 1.9  
Since 1 July snowfall 0.1 2.2  
Since 1 September snowfall 0.1 2.2  
Snow Depth 0.00 in    
Sea Level Pressure  
Sea Level Pressure 29.98 in    
Wind  
Wind Speed 12 mph (NNW)    
Max Wind Speed 20 mph    
Max Gust Speed 26 mph    
Visibility 9 miles    
Events Rain    
T = Trace of Precipitation, MM = Missing Value Source: NWS Daily Summary

Daily Weather History Graph

Daily Weather History Graph

Search for Another Location

Airport or City:

Trip Planner

Search our weather history database for the weather conditions in past years. The results will help you decide how hot, cold, wet, or windy it might be!

Date:

Astronomy

Nov. 27, 2011 Rise Set
Actual Time 6:58 AM CST 4:19 PM CST
Civil Twilight 6:26 AM CST 4:51 PM CST
Nautical Twilight 5:51 AM CST 5:26 PM CST
Astronomical Twilight 5:17 AM CST 6:00 PM CST
Moon 9:23 AM CST (11/27) 6:57 PM CST (11/27)
Length of Visible Light 10h 24m
Length of Day
9h 21m
Waxing Crescent, 8% of the Moon is Illuminated
Nov 27
Waxing Crescent
Dec 2
First Quarter
Dec 10
Full
Dec 17
Last Quarter
Dec 24
New

Hourly Weather History & Observations

Time (CST) Temp. Windchill Dew Point Humidity Pressure Visibility Wind Dir Wind Speed Gust Speed Precip Events Conditions
12:52 AM 46.0 °F 40.2 °F 43.0 °F 89% 29.78 in 6.0 mi WNW 12.7 mph - 0.07 in Rain Light Rain
1:52 AM 45.0 °F 38.9 °F 43.0 °F 93% 29.78 in 6.0 mi NW 12.7 mph - 0.05 in Rain Light Rain
2:52 AM 44.1 °F 38.6 °F 42.1 °F 93% 29.78 in 10.0 mi NW 10.4 mph - 0.01 in Rain Light Rain
3:31 AM 44.6 °F 38.4 °F 42.8 °F 93% 29.78 in 6.0 mi NNW 12.7 mph 21.9 mph 0.00 in Rain Light Rain
3:52 AM 42.8 °F 35.1 °F 41.0 °F 93% 29.79 in 6.0 mi NNW 16.1 mph 21.9 mph N/A Rain Light Rain
4:52 AM 41.0 °F 32.8 °F 39.0 °F 93% 29.83 in 4.0 mi NNW 16.1 mph - 0.02 in Rain Light Rain
5:52 AM 39.9 °F 32.5 °F 37.0 °F 89% 29.86 in 9.0 mi NNW 12.7 mph 19.6 mph 0.01 in Rain Light Rain
6:52 AM 37.9 °F 30.0 °F 35.1 °F 89% 29.90 in 8.0 mi NW 12.7 mph 21.9 mph 0.01 in   Overcast
7:40 AM 37.4 °F 29.3 °F 33.8 °F 87% 29.90 in 10.0 mi NNW 12.7 mph - 0.00 in   Light Drizzle
7:52 AM 37.0 °F 30.4 °F 34.0 °F 89% 29.92 in 9.0 mi NNW 9.2 mph - 0.00 in Rain Light Rain
8:19 AM 37.4 °F 29.3 °F 33.8 °F 87% 29.92 in 10.0 mi NNW 12.7 mph - 0.00 in   Overcast
8:52 AM 37.9 °F 30.5 °F 33.1 °F 83% 29.95 in 10.0 mi NNW 11.5 mph 19.6 mph 0.00 in   Overcast
9:52 AM 37.9 °F 30.9 °F 32.0 °F 79% 29.97 in 10.0 mi NNW 10.4 mph - N/A   Overcast
10:52 AM 37.0 °F 27.7 °F 30.9 °F 79% 29.98 in 10.0 mi NNW 16.1 mph 23.0 mph N/A   Overcast
11:52 AM 37.0 °F 27.7 °F 28.9 °F 73% 29.98 in 10.0 mi NNW 16.1 mph 23.0 mph N/A   Overcast
12:52 PM 36.0 °F 27.1 °F 28.9 °F 76% 30.00 in 10.0 mi North 13.8 mph - N/A   Overcast
1:52 PM 36.0 °F 27.5 °F 28.0 °F 73% 30.01 in 10.0 mi NNW 12.7 mph - N/A   Overcast
2:52 PM 36.0 °F 27.1 °F 27.0 °F 70% 30.04 in 10.0 mi NNW 13.8 mph 19.6 mph N/A   Overcast
3:52 PM 35.1 °F 26.9 °F 26.1 °F 70% 30.07 in 10.0 mi NNW 11.5 mph - N/A   Overcast
4:52 PM 35.1 °F 27.4 °F 26.1 °F 70% 30.09 in 10.0 mi North 10.4 mph 19.6 mph N/A   Overcast
5:52 PM 35.1 °F 26.9 °F 25.0 °F 67% 30.11 in 10.0 mi North 11.5 mph - N/A   Overcast
6:52 PM 35.6 °F 27.5 °F 24.8 °F 65% 30.10 in 10.0 mi North 11.5 mph 17.3 mph N/A   Overcast
7:52 PM 35.1 °F 28.6 °F 25.0 °F 67% 30.14 in 10.0 mi NNW 8.1 mph - N/A   Overcast
8:52 PM 35.1 °F 27.4 °F 26.1 °F 70% 30.15 in 10.0 mi NNW 10.4 mph - N/A   Overcast
9:52 PM 34.0 °F 27.2 °F 25.0 °F 70% 30.17 in 10.0 mi North 8.1 mph - N/A   Overcast
10:52 PM 34.0 °F 26.0 °F 24.1 °F 67% 30.17 in 10.0 mi NW 10.4 mph - N/A   Overcast
11:52 PM 33.1 °F 24.9 °F 24.1 °F 70% 30.18 in 10.0 mi NNW 10.4 mph - N/A   Overcast